2021-033C (48250 NORAD) Tracking and Keplerian Element Data

This shows tracking and keplerian element data for the satellite.

Feedback or suggestion? Click here.




ElementValue
Catalog48250
Name2021-033C
Epoch Orbit299
Epoch Day136.93570352
Epoch Year2021
RAAN212.4375
Inclination97.396
Eccentricity0.0011261
Argument of Perigee191.5833
Mean Anonmoly254.2836
Mean Motion15.20994759
Decay Rate1.453E-05
L11 48250U 21033C 21136.93570352 .00001453 00000-0 68561-4 0 9998
L22 48250 97.3960 212.4375 0011261 191.5833 254.2836 15.20994759 2991

Live tracking and technical data element details for 2021-033C (NORAD 48250). 2021-033C can be tracked NOW for your location showing map with azimuth and elevation plus other details from your city location.

Track the satellite on the map from your city or location and see movement details for azimuth, elevation, latitude, longitude, range, height, and movement on the map or in text.







IsCatalogInMostPopularTable: catalog: 48250, numindb: 6
Update: records affected: 1



GetName: 48250 2021-033C

Hit Count: updated at: Mon, 17 May 2021 15:37:27 GMT